Flag for United Kingdom Weather past 2 weeks in Worcester, England, United Kingdom

Now
39 °F

Chilly.


Feels Like: 32 °F
Forecast: 43 / 51 °F
Wind: 10 mph from West

Location: Pershore

Current Time: Apr 1, 2015 at 7:08:45 AM

Latest Report: Apr 1, 2015 at 6:00 AM


Visibility: 13 mi

Pressure: 30.22 "Hg

Humidity: 70%

Dew point: 30 °F

Location of WorcesterLocation

Historic Weather in Worcester — Graph

°F

Worcester temperature yesterday

Maximum temperature yesterday: 55 °F (at 1:00 AM)
Minimum temperature yesterday: 42 °F (at 11:00 PM)
Average temperature yesterday: 49 °F

Past Weeks' High & Low Weather Summary

 TemperatureHumidityPressure
High58 °F (Mar 28, 2:00 PM)100% (Mar 18, 6:00 AM)30.60 "Hg (Mar 18, 6:00 AM)
Low26 °F (Mar 25, 5:00 AM)48% (Mar 20, 3:00 PM)29.29 "Hg (Mar 29, 1:00 PM)
Average44 °F78%30.06 "Hg
* Reported Mar 17 4:00 AM — Apr 1 5:00 AM, Worcester, Weather by CustomWeather, © 2015

Note: Actual official high and low records may vary slightly from our data, if they occured in-between our weather recording intervals... More about our weather records

Advertising

Worcester weather history for previous 24 hours

 ConditionsComfort  
Time TempWeatherWind HumidityBarometerVisibility
5:00 AM
Wed, Apr 1
39 °FChilly.15 mph70%30.21 "Hg10 mi
4:00 AM39 °FChilly.16 mph70%30.19 "Hg11 mi
3:00 AM39 °FChilly.15 mph73%30.18 "Hg10 mi
2:00 AM40 °FQuite cool.14 mph68%30.16 "Hg12 mi
1:00 AM40 °FChilly.17 mph72%30.14 "Hg12 mi
12:00 AM40 °FQuite cool.12 mph70%30.12 "Hg12 mi
11:00 PM
Tue, Mar 31
42 °FQuite cool.15 mph69%30.10 "Hg15 mi
9:00 PM42 °FQuite cool.15 mph68%30.06 "Hg19 mi
8:00 PM45 °FCool.17 mph59%30.03 "Hg19 mi
7:00 PM46 °FCool.22 mph61%30.00 "Hg19 mi
6:00 PM48 °FCool.29 mph58%29.97 "Hg9 mi
5:00 PM50 °FCool.21 mph63%29.94 "Hg19 mi
4:00 PM47 °FCool.22 mph67%29.91 "Hg22 mi
3:00 PM53 °FCool.29 mph52%29.90 "Hg16 mi
2:00 PM55 °FCool.29 mph48%29.88 "Hg17 mi
1:00 PM50 °FCool.23 mph66%29.87 "Hg19 mi
12:00 PM52 °FCool.24 mph52%29.85 "Hg12 mi
11:00 AM51 °FCool.31 mph56%29.82 "Hg17 mi
10:00 AM50 °FCool.22 mph57%29.78 "Hg18 mi
9:00 AM49 °FCool.24 mph66%29.73 "Hg19 mi
8:00 AM47 °FCool.25 mph74%29.65 "Hg12 mi
7:00 AM47 °FCool.29 mph75%29.58 "Hg12 mi
Weather by CustomWeather, © 2015

See weather overviewHow to use our weather pages